Time,TemperatureF,DewpointF,PressureIn,WindDirection,WindDirectionDegrees,WindSpeedMPH,WindSpeedGustMPH,Humidity,HourlyPrecipIn,Conditions,Clouds,dailyrainin,SolarRadiationWatts/m^2,SoftwareType,DateUTC
2013-03-04 00:00:00,30.1,23.1,29.64,SW,236,9.0,16.0,75,0.00,,OVC038,0.00,0.00,VWS V14.01,2013-03-04 05:00:00,
2013-03-04 00:01:00,30.1,22.8,29.64,West,278,11.0,16.0,74,0.00,,OVC038,0.00,0.00,VWS V14.01,2013-03-04 05:01:00,
2013-03-04 00:06:00,30.1,22.8,29.65,WSW,250,14.0,17.0,74,0.00,,OVC038,0.00,0.00,VWS V14.01,2013-03-04 05:06:00,
2013-03-04 00:11:00,30.2,22.9,29.65,SW,234,10.0,11.0,74,0.00,,OVC038,0.00,0.00,VWS V14.01,2013-03-04 05:11:00,
2013-03-04 00:16:00,30.3,23.0,29.65,West,268,12.0,16.0,74,0.00,,OVC038,0.00,0.00,VWS V14.01,2013-03-04 05:16:00,
2013-03-04 00:21:00,30.3,22.7,29.65,WSW,241,14.0,16.0,73,0.00,,OVC038,0.00,0.00,VWS V14.01,2013-03-04 05:21:00,
2013-03-04 00:26:00,30.3,22.7,29.65,WSW,253,12.0,18.0,73,0.00,,OVC038,0.00,0.00,VWS V14.01,2013-03-04 05:26:00,
2013-03-04 00:31:00,30.3,22.7,29.65,WSW,251,16.0,22.0,73,0.00,,OVC038,0.00,0.00,VWS V14.01,2013-03-04 05:31:00,
2013-03-04 00:36:00,30.3,22.4,29.65,WSW,246,12.0,18.0,72,0.00,,OVC040,0.00,0.00,VWS V14.01,2013-03-04 05:36:00,
2013-03-04 00:41:00,30.3,22.7,29.65,WSW,254,14.0,17.0,73,0.00,,OVC040,0.00,0.00,VWS V14.01,2013-03-04 05:41:00,
2013-03-04 00:46:00,30.3,23.0,29.65,WSW,257,6.0,15.0,74,0.00,,OVC040,0.00,0.00,VWS V14.01,2013-03-04 05:46:00,
2013-03-04 00:51:00,30.2,22.9,29.65,WSW,254,9.0,15.0,74,0.00,,OVC040,0.00,0.00,VWS V14.01,2013-03-04 05:51:00,
2013-03-04 00:56:00,30.2,22.6,29.65,SW,229,9.0,17.0,73,0.00,,OVC040,0.00,0.00,VWS V14.01,2013-03-04 05:56:00,
2013-03-04 01:01:00,30.1,22.2,29.65,West,261,15.0,19.0,72,0.00,,OVC040,0.00,0.00,VWS V14.01,2013-03-04 06:01:00,
2013-03-04 01:06:00,30.1,22.2,29.65,SW,219,10.0,16.0,72,0.00,,OVC040,0.00,0.00,VWS V14.01,2013-03-04 06:06:00,
2013-03-04 01:11:00,30.1,22.2,29.65,West,278,12.0,20.0,72,0.00,,OVC040,0.00,0.00,VWS V14.01,2013-03-04 06:11:00,
2013-03-04 01:16:00,30.1,22.2,29.65,SW,234,9.0,16.0,72,0.00,,OVC040,0.00,0.00,VWS V14.01,2013-03-04 06:16:00,
2013-03-04 01:21:00,30.1,22.2,29.65,SW,229,12.0,17.0,72,0.00,,OVC040,0.00,0.00,VWS V14.01,2013-03-04 06:21:00,
2013-03-04 01:26:00,30.1,22.2,29.65,West,263,11.0,17.0,72,0.00,,OVC040,0.00,0.00,VWS V14.01,2013-03-04 06:26:00,
2013-03-04 01:31:00,30.1,21.9,29.66,SW,236,8.0,19.0,71,0.00,,OVC040,0.00,0.00,VWS V14.01,2013-03-04 06:31:00,
2013-03-04 01:36:00,30.0,21.8,29.65,WSW,257,13.0,19.0,71,0.00,,OVC046,0.00,0.00,VWS V14.01,2013-03-04 06:36:00,
2013-03-04 01:41:00,29.9,21.7,29.65,WSW,249,15.0,18.0,71,0.00,,OVC046,0.00,0.00,VWS V14.01,2013-03-04 06:41:00,
2013-03-04 01:46:00,29.9,22.0,29.65,West,279,5.0,22.0,72,0.00,,OVC046,0.00,0.00,VWS V14.01,2013-03-04 06:46:00,
2013-03-04 01:51:00,29.8,21.6,29.65,WSW,240,17.0,19.0,71,0.00,,OVC046,0.00,0.00,VWS V14.01,2013-03-04 06:51:00,
2013-03-04 01:56:00,29.7,21.5,29.65,WSW,244,12.0,20.0,71,0.00,,OVC046,0.00,0.00,VWS V14.01,2013-03-04 06:56:00,
2013-03-04 02:01:00,29.7,21.1,29.65,WSW,251,12.0,19.0,70,0.00,,OVC046,0.00,0.00,VWS V14.01,2013-03-04 07:01:00,
2013-03-04 02:06:00,29.6,21.0,29.65,WSW,239,12.0,18.0,70,0.00,,OVC046,0.00,0.00,VWS V14.01,2013-03-04 07:06:00,
2013-03-04 02:11:00,29.6,21.4,29.65,SW,223,14.0,21.0,71,0.00,,OVC046,0.00,0.00,VWS V14.01,2013-03-04 07:11:00,
2013-03-04 02:16:00,29.6,21.4,29.65,West,260,17.0,20.0,71,0.00,,OVC046,0.00,0.00,VWS V14.01,2013-03-04 07:16:00,
2013-03-04 02:21:00,29.6,21.4,29.65,WSW,257,17.0,19.0,71,0.00,,OVC046,0.00,0.00,VWS V14.01,2013-03-04 07:21:00,
2013-03-04 02:26:00,29.6,21.4,29.65,WSW,247,10.0,18.0,71,0.00,,OVC046,0.00,0.00,VWS V14.01,2013-03-04 07:26:00,
2013-03-04 02:31:00,29.5,21.3,29.65,WSW,237,13.0,18.0,71,0.00,,OVC046,0.00,0.00,VWS V14.01,2013-03-04 07:31:00,
2013-03-04 02:36:00,29.4,21.5,29.65,SW,227,12.0,15.0,72,0.00,,OVC050,0.00,0.00,VWS V14.01,2013-03-04 07:36:00,
2013-03-04 02:41:00,29.4,21.5,29.65,West,275,14.0,19.0,72,0.00,,OVC050,0.00,0.00,VWS V14.01,2013-03-04 07:41:00,
2013-03-04 02:46:00,29.4,21.2,29.65,WSW,246,19.0,19.0,71,0.00,,OVC050,0.00,0.00,VWS V14.01,2013-03-04 07:46:00,
2013-03-04 02:51:00,29.3,21.4,29.65,WSW,246,11.0,19.0,72,0.00,,OVC050,0.00,0.00,VWS V14.01,2013-03-04 07:51:00,
2013-03-04 02:56:00,29.3,21.4,29.65,WSW,254,8.0,18.0,72,0.00,,OVC050,0.00,0.00,VWS V14.01,2013-03-04 07:56:00,
2013-03-04 03:01:00,29.2,21.3,29.66,WSW,256,10.0,19.0,72,0.00,,OVC050,0.00,0.00,VWS V14.01,2013-03-04 08:01:00,
2013-03-04 03:06:00,29.2,21.3,29.66,West,267,8.0,17.0,72,0.00,,OVC050,0.00,0.00,VWS V14.01,2013-03-04 08:06:00,
2013-03-04 03:11:00,29.1,21.2,29.66,WSW,254,7.0,17.0,72,0.00,,OVC050,0.00,0.00,VWS V14.01,2013-03-04 08:11:00,
2013-03-04 03:16:00,29.1,21.2,29.66,WSW,246,11.0,17.0,72,0.00,,OVC050,0.00,0.00,VWS V14.01,2013-03-04 08:16:00,
2013-03-04 03:21:00,29.1,21.2,29.66,WSW,256,14.0,18.0,72,0.00,,OVC050,0.00,0.00,VWS V14.01,2013-03-04 08:21:00,
2013-03-04 03:26:00,29.2,21.3,29.66,WSW,241,9.0,21.0,72,0.00,,OVC050,0.00,0.00,VWS V14.01,2013-03-04 08:26:00,
2013-03-04 03:31:00,29.1,21.2,29.66,WSW,255,11.0,15.0,72,0.00,,OVC050,0.00,0.00,VWS V14.01,2013-03-04 08:31:00,
2013-03-04 03:36:00,29.1,21.2,29.66,West,263,12.0,18.0,72,0.00,,OVC110,0.00,0.00,VWS V14.01,2013-03-04 08:36:00,
2013-03-04 03:41:00,29.1,21.2,29.66,West,261,16.0,17.0,72,0.00,,OVC110,0.00,0.00,VWS V14.01,2013-03-04 08:41:00,
2013-03-04 03:46:00,29.0,21.1,29.67,SW,225,8.0,16.0,72,0.00,,OVC110,0.00,0.00,VWS V14.01,2013-03-04 08:46:00,
2013-03-04 03:51:00,29.0,21.1,29.67,WSW,249,6.0,17.0,72,0.00,,OVC110,0.00,0.00,VWS V14.01,2013-03-04 08:51:00,
2013-03-04 03:56:00,29.0,21.1,29.67,West,260,8.0,17.0,72,0.00,,OVC110,0.00,0.00,VWS V14.01,2013-03-04 08:56:00,
2013-03-04 04:01:00,29.0,21.1,29.67,WSW,240,11.0,16.0,72,0.00,,OVC110,0.00,0.00,VWS V14.01,2013-03-04 09:01:00,
2013-03-04 04:06:00,29.0,21.4,29.67,WSW,241,7.0,13.0,73,0.00,,OVC110,0.00,0.00,VWS V14.01,2013-03-04 09:06:00,
2013-03-04 04:11:00,29.0,21.4,29.67,West,265,11.0,16.0,73,0.00,,OVC110,0.00,0.00,VWS V14.01,2013-03-04 09:11:00,
2013-03-04 04:16:00,28.9,21.4,29.67,West,271,5.0,17.0,73,0.00,,OVC110,0.00,0.00,VWS V14.01,2013-03-04 09:16:00,
2013-03-04 04:21:00,28.9,21.4,29.67,West,265,6.0,14.0,73,0.00,,OVC110,0.00,0.00,VWS V14.01,2013-03-04 09:21:00,
2013-03-04 04:26:00,29.0,21.4,29.67,WSW,256,3.0,19.0,73,0.00,,OVC110,0.00,0.00,VWS V14.01,2013-03-04 09:26:00,
2013-03-04 04:31:00,28.9,21.4,29.67,WSW,240,12.0,17.0,73,0.00,,OVC110,0.00,0.00,VWS V14.01,2013-03-04 09:31:00,
2013-03-04 04:36:00,28.9,21.4,29.67,SW,236,11.0,20.0,73,0.00,,OVC120,0.00,0.00,VWS V14.01,2013-03-04 09:36:00,
2013-03-04 04:41:00,28.9,21.4,29.67,West,260,12.0,17.0,73,0.00,,OVC120,0.00,0.00,VWS V14.01,2013-03-04 09:41:00,
2013-03-04 04:46:00,28.9,21.4,29.67,West,262,10.0,17.0,73,0.00,,OVC120,0.00,0.00,VWS V14.01,2013-03-04 09:46:00,
2013-03-04 04:51:00,28.9,21.4,29.67,SW,233,13.0,14.0,73,0.00,,OVC120,0.00,0.00,VWS V14.01,2013-03-04 09:51:00,
2013-03-04 04:55:00,28.9,21.4,29.67,WSW,247,7.0,16.0,73,0.00,,OVC120,0.00,0.00,VWS V14.01,2013-03-04 09:55:00,
2013-03-04 05:00:00,28.9,21.4,29.67,SW,234,19.0,21.0,73,0.00,,OVC120,0.00,0.00,VWS V14.01,2013-03-04 10:00:00,
2013-03-04 05:05:00,29.0,21.8,29.67,WSW,245,14.0,14.0,74,0.00,,OVC120,0.00,0.00,VWS V14.01,2013-03-04 10:05:00,
2013-03-04 05:10:00,28.9,21.4,29.68,WSW,242,12.0,16.0,73,0.00,,OVC120,0.00,0.00,VWS V14.01,2013-03-04 10:10:00,
2013-03-04 05:15:00,28.9,21.4,29.68,West,279,10.0,19.0,73,0.00,,OVC120,0.00,0.00,VWS V14.01,2013-03-04 10:15:00,
2013-03-04 05:20:00,28.9,21.4,29.67,WSW,254,17.0,24.0,73,0.00,,OVC120,0.00,0.00,VWS V14.01,2013-03-04 10:20:00,
2013-03-04 05:25:00,28.9,21.4,29.68,West,259,9.0,19.0,73,0.00,,OVC120,0.00,0.00,VWS V14.01,2013-03-04 10:25:00,
2013-03-04 05:30:00,28.9,21.4,29.67,SW,229,9.0,18.0,73,0.00,,OVC120,0.00,0.00,VWS V14.01,2013-03-04 10:30:00,
2013-03-04 05:35:00,28.9,21.4,29.68,WSW,254,17.0,20.0,73,0.00,,OVC110,0.00,0.00,VWS V14.01,2013-03-04 10:35:00,
2013-03-04 05:40:00,28.9,21.4,29.67,WSW,246,12.0,16.0,73,0.00,,OVC110,0.00,0.00,VWS V14.01,2013-03-04 10:40:00,
2013-03-04 05:45:00,29.0,21.8,29.67,WNW,288,14.0,24.0,74,0.00,,OVC110,0.00,0.00,VWS V14.01,2013-03-04 10:45:00,
2013-03-04 05:50:00,28.9,21.4,29.68,WSW,256,11.0,15.0,73,0.00,,OVC110,0.00,0.00,VWS V14.01,2013-03-04 10:50:00,
2013-03-04 05:55:00,28.9,21.7,29.68,WSW,251,14.0,18.0,74,0.00,,OVC110,0.00,0.00,VWS V14.01,2013-03-04 10:55:00,
2013-03-04 06:00:00,28.9,21.4,29.68,WSW,243,15.0,21.0,73,0.00,,OVC110,0.00,0.00,VWS V14.01,2013-03-04 11:00:00,
2013-03-04 06:05:00,28.8,21.6,29.68,West,261,12.0,18.0,74,0.00,,OVC110,0.00,0.00,VWS V14.01,2013-03-04 11:05:00,
2013-03-04 06:10:00,28.7,21.5,29.68,West,269,13.0,22.0,74,0.00,,OVC110,0.00,0.00,VWS V14.01,2013-03-04 11:10:00,
2013-03-04 06:15:00,28.7,21.5,29.68,SW,215,12.0,19.0,74,0.00,,OVC110,0.00,0.00,VWS V14.01,2013-03-04 11:15:00,
2013-03-04 06:20:00,28.6,21.4,29.68,West,273,13.0,22.0,74,0.00,,OVC110,0.00,5.00,VWS V14.01,2013-03-04 11:20:00,
2013-03-04 06:25:00,28.7,21.5,29.68,WNW,290,15.0,21.0,74,0.00,,OVC110,0.00,9.00,VWS V14.01,2013-03-04 11:25:00,
2013-03-04 06:30:00,28.7,21.8,29.68,West,259,12.0,20.0,75,0.00,,OVC110,0.00,11.00,VWS V14.01,2013-03-04 11:30:00,
2013-03-04 06:35:00,28.7,21.8,29.68,SW,227,11.0,17.0,75,0.00,,OVC110,0.00,14.00,VWS V14.01,2013-03-04 11:35:00,
2013-03-04 06:40:00,28.7,21.5,29.68,West,259,16.0,20.0,74,0.00,,OVC110,0.00,16.00,VWS V14.01,2013-03-04 11:40:00,
2013-03-04 06:45:00,28.8,21.9,29.69,WNW,282,8.0,21.0,75,0.00,,OVC110,0.00,19.00,VWS V14.01,2013-03-04 11:45:00,
2013-03-04 06:50:00,28.8,21.9,29.69,West,275,21.0,21.0,75,0.00,,OVC110,0.00,26.00,VWS V14.01,2013-03-04 11:50:00,
2013-03-04 06:55:00,29.0,21.8,29.69,WSW,256,16.0,19.0,74,0.00,,OVC110,0.00,28.00,VWS V14.01,2013-03-04 11:55:00,
2013-03-04 07:00:00,29.2,22.0,29.68,SW,231,14.0,17.0,74,0.00,,OVC110,0.00,28.00,VWS V14.01,2013-03-04 12:00:00,
2013-03-04 07:05:00,29.3,22.1,29.68,WSW,248,12.0,19.0,74,0.00,,OVC110,0.00,32.00,VWS V14.01,2013-03-04 12:05:00,
2013-03-04 07:10:00,29.3,22.1,29.68,WSW,250,13.0,18.0,74,0.00,,OVC110,0.00,42.00,VWS V14.01,2013-03-04 12:10:00,
2013-03-04 07:15:00,29.5,22.2,29.69,West,261,16.0,20.0,74,0.00,,OVC110,0.00,53.00,VWS V14.01,2013-03-04 12:15:00,
2013-03-04 07:20:00,29.5,21.9,29.69,West,281,10.0,25.0,73,0.00,,OVC110,0.00,65.00,VWS V14.01,2013-03-04 12:20:00,
2013-03-04 07:25:00,29.7,22.1,29.69,WNW,284,14.0,21.0,73,0.00,,OVC110,0.00,79.00,VWS V14.01,2013-03-04 12:25:00,
2013-03-04 07:30:00,29.7,22.1,29.69,West,272,14.0,22.0,73,0.00,,OVC110,0.00,97.00,VWS V14.01,2013-03-04 12:30:00,
2013-03-04 07:35:00,29.9,22.3,29.69,West,260,13.0,20.0,73,0.00,,OVC110,0.00,114.00,VWS V14.01,2013-03-04 12:35:00,
2013-03-04 07:40:00,30.0,22.4,29.69,WSW,242,8.0,24.0,73,0.00,,OVC110,0.00,132.00,VWS V14.01,2013-03-04 12:40:00,
2013-03-04 07:45:00,30.1,22.5,29.69,WSW,240,12.0,19.0,73,0.00,,OVC110,0.00,149.00,VWS V14.01,2013-03-04 12:45:00,
2013-03-04 07:50:00,30.3,22.7,29.69,WSW,250,18.0,18.0,73,0.00,,OVC110,0.00,163.00,VWS V14.01,2013-03-04 12:50:00,
2013-03-04 07:55:00,30.5,22.9,29.69,WSW,257,11.0,16.0,73,0.00,,OVC110,0.00,181.00,VWS V14.01,2013-03-04 12:55:00,
2013-03-04 08:00:00,30.5,22.6,29.70,West,265,11.0,19.0,72,0.00,,OVC110,0.00,202.00,VWS V14.01,2013-03-04 13:00:00,
2013-03-04 08:05:00,30.6,23.0,29.70,WSW,250,17.0,20.0,73,0.00,,OVC110,0.00,221.00,VWS V14.01,2013-03-04 13:05:00,
2013-03-04 08:10:00,30.8,23.2,29.70,SW,229,15.0,20.0,73,0.00,,OVC110,0.00,241.00,VWS V14.01,2013-03-04 13:10:00,
2013-03-04 08:15:00,31.1,23.1,29.70,SW,236,22.0,22.0,72,0.00,,OVC110,0.00,260.00,VWS V14.01,2013-03-04 13:15:00,
2013-03-04 08:20:00,31.1,23.1,29.69,West,265,16.0,20.0,72,0.00,,OVC110,0.00,271.00,VWS V14.01,2013-03-04 13:20:00,
2013-03-04 08:25:00,31.2,23.2,29.69,SW,233,14.0,24.0,72,0.00,,OVC110,0.00,288.00,VWS V14.01,2013-03-04 13:25:00,
2013-03-04 08:30:00,31.3,23.7,29.69,WSW,238,16.0,22.0,73,0.00,,OVC110,0.00,302.00,VWS V14.01,2013-03-04 13:30:00,
2013-03-04 08:35:00,31.4,23.4,29.69,WSW,238,12.0,22.0,72,0.00,,CLR,0.00,315.00,VWS V14.01,2013-03-04 13:35:00,
2013-03-04 08:40:00,31.6,23.6,29.69,WSW,254,8.0,18.0,72,0.00,,CLR,0.00,329.00,VWS V14.01,2013-03-04 13:40:00,
2013-03-04 08:45:00,32.1,24.4,29.69,SW,233,9.0,17.0,73,0.00,,CLR,0.00,346.00,VWS V14.01,2013-03-04 13:45:00,
2013-03-04 08:50:00,32.2,23.9,29.69,SW,231,11.0,18.0,71,0.00,,CLR,0.00,364.00,VWS V14.01,2013-03-04 13:50:00,
2013-03-04 08:55:00,32.2,23.9,29.68,WSW,252,12.0,18.0,71,0.00,,CLR,0.00,374.00,VWS V14.01,2013-03-04 13:55:00,
2013-03-04 09:00:00,32.6,24.2,29.68,SW,233,15.0,22.0,71,0.00,,CLR,0.00,396.00,VWS V14.01,2013-03-04 14:00:00,
2013-03-04 09:05:00,32.5,23.8,29.68,West,269,8.0,20.0,70,0.00,,CLR,0.00,401.00,VWS V14.01,2013-03-04 14:05:00,
2013-03-04 09:10:00,32.6,23.9,29.68,WSW,258,15.0,24.0,70,0.00,,CLR,0.00,418.00,VWS V14.01,2013-03-04 14:10:00,
2013-03-04 09:15:00,32.5,24.2,29.68,SW,235,10.0,24.0,71,0.00,,CLR,0.00,431.00,VWS V14.01,2013-03-04 14:15:00,
2013-03-04 09:20:00,33.0,24.6,29.68,West,259,11.0,18.0,71,0.00,,CLR,0.00,445.00,VWS V14.01,2013-03-04 14:20:00,
2013-03-04 09:25:00,33.2,24.5,29.68,SW,236,9.0,18.0,70,0.00,,CLR,0.00,462.00,VWS V14.01,2013-03-04 14:25:00,
2013-03-04 09:30:00,33.6,24.9,29.68,WSW,243,16.0,22.0,70,0.00,,CLR,0.00,473.00,VWS V14.01,2013-03-04 14:30:00,
2013-03-04 09:35:00,33.7,24.3,29.68,WSW,245,7.0,21.0,68,0.00,,CLR,0.00,478.00,VWS V14.01,2013-03-04 14:35:00,
2013-03-04 09:40:00,33.8,25.1,29.68,West,264,12.0,22.0,70,0.00,,CLR,0.00,485.00,VWS V14.01,2013-03-04 14:40:00,
2013-03-04 09:45:00,33.9,24.5,29.68,West,259,12.0,20.0,68,0.00,,CLR,0.00,499.00,VWS V14.01,2013-03-04 14:45:00,
2013-03-04 09:50:00,33.8,24.4,29.69,SW,232,8.0,23.0,68,0.00,,CLR,0.00,504.00,VWS V14.01,2013-03-04 14:50:00,
2013-03-04 09:55:00,34.2,25.1,29.68,WSW,242,9.0,17.0,69,0.00,,CLR,0.00,515.00,VWS V14.01,2013-03-04 14:55:00,
2013-03-04 10:00:00,34.8,25.3,29.68,WSW,237,10.0,17.0,68,0.00,,CLR,0.00,529.00,VWS V14.01,2013-03-04 15:00:00,
2013-03-04 10:05:00,34.7,25.2,29.68,WSW,254,9.0,21.0,68,0.00,,CLR,0.00,557.00,VWS V14.01,2013-03-04 15:05:00,
2013-03-04 10:10:00,34.8,24.6,29.68,SW,236,11.0,19.0,66,0.00,,CLR,0.00,554.00,VWS V14.01,2013-03-04 15:10:00,
2013-03-04 10:15:00,35.0,25.2,29.68,WSW,252,4.0,19.0,67,0.00,,CLR,0.00,570.00,VWS V14.01,2013-03-04 15:15:00,
2013-03-04 10:20:00,35.4,25.2,29.68,WSW,256,15.0,21.0,66,0.00,,CLR,0.00,566.00,VWS V14.01,2013-03-04 15:20:00,
2013-03-04 10:25:00,35.5,25.3,29.68,WSW,242,12.0,18.0,66,0.00,,CLR,0.00,575.00,VWS V14.01,2013-03-04 15:25:00,
2013-03-04 10:30:00,35.3,24.4,29.67,WSW,257,13.0,23.0,64,0.00,,CLR,0.00,603.00,VWS V14.01,2013-03-04 15:30:00,
2013-03-04 10:34:00,35.2,24.3,29.67,WSW,246,14.0,20.0,64,0.00,,CLR,0.00,631.00,VWS V14.01,2013-03-04 15:34:00,
2013-03-04 10:39:00,35.6,25.0,29.67,WSW,238,15.0,21.0,65,0.00,,CLR,0.00,519.00,VWS V14.01,2013-03-04 15:39:00,
2013-03-04 10:44:00,35.7,25.1,29.67,West,267,12.0,19.0,65,0.00,,CLR,0.00,585.00,VWS V14.01,2013-03-04 15:44:00,
2013-03-04 10:49:00,35.9,24.9,29.67,WSW,247,18.0,21.0,64,0.00,,CLR,0.00,633.00,VWS V14.01,2013-03-04 15:49:00,
2013-03-04 10:54:00,35.8,24.5,29.67,SW,229,18.0,21.0,63,0.00,,CLR,0.00,571.00,VWS V14.01,2013-03-04 15:54:00,
2013-03-04 10:59:00,35.5,24.5,29.67,West,259,13.0,23.0,64,0.00,,CLR,0.00,675.00,VWS V14.01,2013-03-04 15:59:00,
2013-03-04 11:04:00,36.1,25.1,29.67,SW,223,13.0,21.0,64,0.00,,CLR,0.00,642.00,VWS V14.01,2013-03-04 16:04:00,
2013-03-04 11:09:00,36.5,25.1,29.67,West,259,11.0,22.0,63,0.00,,CLR,0.00,645.00,VWS V14.01,2013-03-04 16:09:00,
2013-03-04 11:14:00,36.4,24.2,29.67,West,262,14.0,23.0,61,0.00,,CLR,0.00,654.00,VWS V14.01,2013-03-04 16:14:00,
2013-03-04 11:19:00,36.7,24.9,29.67,WSW,237,9.0,21.0,62,0.00,,CLR,0.00,657.00,VWS V14.01,2013-03-04 16:19:00,
2013-03-04 11:24:00,37.3,25.9,29.67,West,270,14.0,22.0,63,0.00,,CLR,0.00,659.00,VWS V14.01,2013-03-04 16:24:00,
2013-03-04 11:29:00,37.1,25.3,29.67,West,263,15.0,21.0,62,0.00,,CLR,0.00,687.00,VWS V14.01,2013-03-04 16:29:00,
2013-03-04 11:34:00,37.2,25.4,29.67,West,264,10.0,25.0,62,0.00,,CLR,0.00,670.00,VWS V14.01,2013-03-04 16:34:00,
2013-03-04 11:39:00,37.6,25.4,29.67,WSW,242,17.0,21.0,61,0.00,,CLR,0.00,816.00,VWS V14.01,2013-03-04 16:39:00,
2013-03-04 11:44:00,38.1,26.6,29.67,WSW,242,11.0,17.0,63,0.00,,CLR,0.00,265.00,VWS V14.01,2013-03-04 16:44:00,
2013-03-04 11:49:00,37.7,25.9,29.67,WSW,240,14.0,21.0,62,0.00,,CLR,0.00,659.00,VWS V14.01,2013-03-04 16:49:00,
2013-03-04 11:54:00,37.6,25.0,29.67,West,261,13.0,21.0,60,0.00,,CLR,0.00,497.00,VWS V14.01,2013-03-04 16:54:00,
2013-03-04 11:59:00,37.7,25.9,29.66,WSW,252,22.0,22.0,62,0.00,,CLR,0.00,701.00,VWS V14.01,2013-03-04 16:59:00,
2013-03-04 12:04:00,38.1,25.9,29.66,WSW,238,14.0,23.0,61,0.00,,CLR,0.00,686.00,VWS V14.01,2013-03-04 17:04:00,
2013-03-04 12:09:00,38.1,26.2,29.66,West,260,10.0,22.0,62,0.00,,CLR,0.00,682.00,VWS V14.01,2013-03-04 17:09:00,
2013-03-04 12:14:00,38.0,26.1,29.66,WSW,252,13.0,22.0,62,0.00,,CLR,0.00,687.00,VWS V14.01,2013-03-04 17:14:00,
2013-03-04 12:19:00,38.3,27.6,29.66,West,268,16.0,23.0,65,0.00,,CLR,0.00,744.00,VWS V14.01,2013-03-04 17:19:00,
2013-03-04 12:24:00,38.3,26.0,29.66,West,259,18.0,25.0,61,0.00,,CLR,0.00,775.00,VWS V14.01,2013-03-04 17:24:00,
2013-03-04 12:29:00,38.7,26.4,29.66,SW,233,14.0,19.0,61,0.00,,CLR,0.00,700.00,VWS V14.01,2013-03-04 17:29:00,
2013-03-04 12:34:00,38.6,25.9,29.65,WSW,240,13.0,21.0,60,0.00,,BKN080,0.00,671.00,VWS V14.01,2013-03-04 17:34:00,
2013-03-04 12:39:00,38.7,26.0,29.65,WSW,250,15.0,22.0,60,0.00,,BKN080,0.00,673.00,VWS V14.01,2013-03-04 17:39:00,
2013-03-04 12:44:00,38.8,26.9,29.65,SW,236,22.0,22.0,62,0.00,,BKN080,0.00,668.00,VWS V14.01,2013-03-04 17:44:00,
2013-03-04 12:49:00,38.6,25.5,29.65,WSW,242,17.0,23.0,59,0.00,,BKN080,0.00,664.00,VWS V14.01,2013-03-04 17:49:00,
2013-03-04 12:54:00,38.8,26.5,29.64,SW,232,8.0,22.0,61,0.00,,BKN080,0.00,661.00,VWS V14.01,2013-03-04 17:54:00,
2013-03-04 12:59:00,38.7,26.0,29.64,SW,234,16.0,29.0,60,0.00,,BKN080,0.00,659.00,VWS V14.01,2013-03-04 17:59:00,
2013-03-04 13:04:00,38.7,26.4,29.64,West,260,20.0,24.0,61,0.00,,BKN080,0.00,654.00,VWS V14.01,2013-03-04 18:04:00,
2013-03-04 13:09:00,38.9,26.6,29.64,SW,227,16.0,23.0,61,0.00,,BKN080,0.00,649.00,VWS V14.01,2013-03-04 18:09:00,
2013-03-04 13:14:00,38.7,26.4,29.63,West,278,13.0,25.0,61,0.00,,BKN080,0.00,652.00,VWS V14.01,2013-03-04 18:14:00,
2013-03-04 13:19:00,39.0,26.7,29.64,WSW,243,17.0,21.0,61,0.00,,BKN080,0.00,659.00,VWS V14.01,2013-03-04 18:19:00,
2013-03-04 13:24:00,39.1,26.8,29.64,WSW,242,10.0,18.0,61,0.00,,BKN080,0.00,666.00,VWS V14.01,2013-03-04 18:24:00,
2013-03-04 13:29:00,39.3,25.8,29.63,WSW,237,9.0,22.0,58,0.00,,BKN080,0.00,635.00,VWS V14.01,2013-03-04 18:29:00,
2013-03-04 13:31:00,39.3,25.8,29.64,WSW,245,16.0,22.0,58,0.00,,BKN080,0.00,629.00,VWS V14.01,2013-03-04 18:31:00,
2013-03-04 13:36:00,39.4,26.7,29.64,WSW,246,22.0,24.0,60,0.00,,FEW080,0.00,615.00,VWS V14.01,2013-03-04 18:36:00,
2013-03-04 13:41:00,39.2,24.8,29.63,WSW,244,13.0,31.0,56,0.00,,FEW080,0.00,626.00,VWS V14.01,2013-03-04 18:41:00,
2013-03-04 13:46:00,39.3,26.2,29.64,West,261,11.0,23.0,59,0.00,,FEW080,0.00,615.00,VWS V14.01,2013-03-04 18:46:00,
2013-03-04 13:51:00,39.7,26.6,29.64,West,281,10.0,19.0,59,0.00,,FEW080,0.00,606.00,VWS V14.01,2013-03-04 18:51:00,
2013-03-04 13:56:00,39.4,25.9,29.64,West,276,11.0,24.0,58,0.00,,FEW080,0.00,594.00,VWS V14.01,2013-03-04 18:56:00,
2013-03-04 14:01:00,39.6,26.9,29.64,West,276,12.0,23.0,60,0.00,,FEW080,0.00,584.00,VWS V14.01,2013-03-04 19:01:00,
2013-03-04 14:06:00,39.5,26.0,29.64,WSW,250,22.0,31.0,58,0.00,,FEW080,0.00,575.00,VWS V14.01,2013-03-04 19:06:00,
2013-03-04 14:11:00,39.3,24.9,29.64,SW,225,19.0,26.0,56,0.00,,FEW080,0.00,566.00,VWS V14.01,2013-03-04 19:11:00,
2013-03-04 14:16:00,39.3,24.9,29.64,West,267,10.0,25.0,56,0.00,,FEW080,0.00,559.00,VWS V14.01,2013-03-04 19:16:00,
2013-03-04 14:21:00,39.3,25.8,29.64,WSW,250,12.0,26.0,58,0.00,,FEW080,0.00,550.00,VWS V14.01,2013-03-04 19:21:00,
2013-03-04 14:26:00,39.6,26.1,29.64,WSW,256,17.0,26.0,58,0.00,,FEW080,0.00,540.00,VWS V14.01,2013-03-04 19:26:00,
2013-03-04 14:31:00,39.7,26.1,29.64,WSW,254,11.0,24.0,58,0.00,,FEW080,0.00,526.00,VWS V14.01,2013-03-04 19:31:00,
2013-03-04 14:36:00,39.7,25.7,29.64,WNW,288,14.0,24.0,57,0.00,,CLR,0.00,517.00,VWS V14.01,2013-03-04 19:36:00,
2013-03-04 14:41:00,39.6,24.8,29.63,WNW,285,22.0,26.0,55,0.00,,CLR,0.00,508.00,VWS V14.01,2013-03-04 19:41:00,
2013-03-04 14:46:00,39.6,25.6,29.64,WSW,254,21.0,24.0,57,0.00,,CLR,0.00,494.00,VWS V14.01,2013-03-04 19:46:00,
2013-03-04 14:51:00,39.5,25.5,29.64,West,271,11.0,25.0,57,0.00,,CLR,0.00,483.00,VWS V14.01,2013-03-04 19:51:00,
2013-03-04 14:56:00,39.5,25.5,29.64,West,273,12.0,27.0,57,0.00,,CLR,0.00,473.00,VWS V14.01,2013-03-04 19:56:00,
2013-03-04 15:01:00,39.5,26.0,29.64,West,272,19.0,24.0,58,0.00,,CLR,0.00,461.00,VWS V14.01,2013-03-04 20:01:00,
2013-03-04 15:06:00,39.4,25.9,29.64,WNW,289,22.0,23.0,58,0.00,,CLR,0.00,454.00,VWS V14.01,2013-03-04 20:06:00,
2013-03-04 15:11:00,39.4,25.0,29.64,West,276,14.0,29.0,56,0.00,,CLR,0.00,441.00,VWS V14.01,2013-03-04 20:11:00,
2013-03-04 15:16:00,39.4,25.5,29.64,West,265,25.0,25.0,57,0.00,,CLR,0.00,367.00,VWS V14.01,2013-03-04 20:16:00,
2013-03-04 15:21:00,39.4,25.9,29.64,NW,313,13.0,20.0,58,0.00,,CLR,0.00,403.00,VWS V14.01,2013-03-04 20:21:00,
2013-03-04 15:26:00,39.6,26.1,29.64,West,259,22.0,22.0,58,0.00,,CLR,0.00,186.00,VWS V14.01,2013-03-04 20:26:00,
2013-03-04 15:31:00,39.7,25.7,29.64,West,276,14.0,25.0,57,0.00,,CLR,0.00,343.00,VWS V14.01,2013-03-04 20:31:00,
2013-03-04 15:36:00,39.7,25.7,29.64,WSW,253,15.0,25.0,57,0.00,,CLR,0.00,371.00,VWS V14.01,2013-03-04 20:36:00,
2013-03-04 15:41:00,39.7,26.1,29.64,WSW,257,13.0,24.0,58,0.00,,CLR,0.00,355.00,VWS V14.01,2013-03-04 20:41:00,
2013-03-04 15:46:00,39.6,26.1,29.64,WNW,292,15.0,23.0,58,0.00,,CLR,0.00,339.00,VWS V14.01,2013-03-04 20:46:00,
2013-03-04 15:51:00,39.7,26.6,29.64,WSW,255,13.0,20.0,59,0.00,,CLR,0.00,329.00,VWS V14.01,2013-03-04 20:51:00,
2013-03-04 15:56:00,39.7,26.6,29.64,WSW,240,21.0,23.0,59,0.00,,CLR,0.00,313.00,VWS V14.01,2013-03-04 20:56:00,
2013-03-04 16:01:00,39.6,26.1,29.64,WSW,257,18.0,23.0,58,0.00,,CLR,0.00,292.00,VWS V14.01,2013-03-04 21:01:00,
2013-03-04 16:06:00,39.5,25.1,29.64,West,279,20.0,25.0,56,0.00,,CLR,0.00,278.00,VWS V14.01,2013-03-04 21:06:00,
2013-03-04 16:11:00,39.5,25.1,29.64,West,279,17.0,27.0,56,0.00,,CLR,0.00,258.00,VWS V14.01,2013-03-04 21:11:00,
2013-03-04 16:16:00,39.5,25.1,29.64,WSW,258,18.0,25.0,56,0.00,,CLR,0.00,237.00,VWS V14.01,2013-03-04 21:16:00,
2013-03-04 16:21:00,39.4,25.5,29.65,WNW,289,13.0,23.0,57,0.00,,CLR,0.00,225.00,VWS V14.01,2013-03-04 21:21:00,
2013-03-04 16:26:00,39.2,25.3,29.65,WSW,252,13.0,28.0,57,0.00,,CLR,0.00,207.00,VWS V14.01,2013-03-04 21:26:00,
2013-03-04 16:31:00,39.1,25.2,29.65,WNW,284,21.0,29.0,57,0.00,,CLR,0.00,186.00,VWS V14.01,2013-03-04 21:31:00,
2013-03-04 16:36:00,38.9,24.6,29.66,WSW,254,20.0,33.0,56,0.00,,CLR,0.00,165.00,VWS V14.01,2013-03-04 21:36:00,
2013-03-04 16:41:00,38.7,24.8,29.65,West,276,9.0,29.0,57,0.00,,CLR,0.00,149.00,VWS V14.01,2013-03-04 21:41:00,
2013-03-04 16:46:00,38.6,24.7,29.65,WNW,284,11.0,25.0,57,0.00,,CLR,0.00,130.00,VWS V14.01,2013-03-04 21:46:00,
2013-03-04 16:51:00,38.3,24.4,29.66,West,276,18.0,33.0,57,0.00,,CLR,0.00,97.00,VWS V14.01,2013-03-04 21:51:00,
2013-03-04 16:56:00,38.2,24.7,29.66,West,269,13.0,31.0,58,0.00,,CLR,0.00,86.00,VWS V14.01,2013-03-04 21:56:00,
2013-03-04 17:01:00,38.0,24.1,29.66,West,265,17.0,32.0,57,0.00,,CLR,0.00,69.00,VWS V14.01,2013-03-04 22:01:00,
2013-03-04 17:06:00,37.9,24.0,29.66,WSW,256,13.0,28.0,57,0.00,,CLR,0.00,54.00,VWS V14.01,2013-03-04 22:06:00,
2013-03-04 17:11:00,37.8,24.8,29.67,West,281,14.0,27.0,59,0.00,,CLR,0.00,35.00,VWS V14.01,2013-03-04 22:11:00,
2013-03-04 17:16:00,37.6,24.6,29.67,West,260,17.0,23.0,59,0.00,,CLR,0.00,28.00,VWS V14.01,2013-03-04 22:16:00,
2013-03-04 17:21:00,37.4,24.8,29.67,West,277,27.0,27.0,60,0.00,,CLR,0.00,19.00,VWS V14.01,2013-03-04 22:21:00,
2013-03-04 17:25:00,37.3,24.3,29.67,West,270,17.0,27.0,59,0.00,,CLR,0.00,16.00,VWS V14.01,2013-03-04 22:25:00,
2013-03-04 17:30:00,37.1,24.5,29.67,West,270,16.0,28.0,60,0.00,,CLR,0.00,13.00,VWS V14.01,2013-03-04 22:30:00,
2013-03-04 17:35:00,36.9,24.3,29.68,West,270,18.0,25.0,60,0.00,,CLR,0.00,11.00,VWS V14.01,2013-03-04 22:35:00,
2013-03-04 17:40:00,36.7,24.5,29.68,West,270,15.0,25.0,61,0.00,,CLR,0.00,7.00,VWS V14.01,2013-03-04 22:40:00,
2013-03-04 17:45:00,36.5,24.3,29.68,West,270,16.0,28.0,61,0.00,,CLR,0.00,4.00,VWS V14.01,2013-03-04 22:45:00,
2013-03-04 17:50:00,36.4,24.2,29.68,West,270,19.0,29.0,61,0.00,,CLR,0.00,0.00,VWS V14.01,2013-03-04 22:50:00,
2013-03-04 17:55:00,36.1,24.0,29.68,West,270,19.0,28.0,61,0.00,,CLR,0.00,0.00,VWS V14.01,2013-03-04 22:55:00,
2013-03-04 18:00:00,35.8,23.7,29.69,West,270,18.0,28.0,61,0.00,,CLR,0.00,0.00,VWS V14.01,2013-03-04 23:00:00,
2013-03-04 18:05:00,35.6,23.9,29.69,West,270,17.0,27.0,62,0.00,,CLR,0.00,0.00,VWS V14.01,2013-03-04 23:05:00,
2013-03-04 18:10:00,35.4,24.1,29.69,West,270,15.0,25.0,63,0.00,,CLR,0.00,0.00,VWS V14.01,2013-03-04 23:10:00,
2013-03-04 18:15:00,35.2,23.1,29.70,West,270,18.0,29.0,61,0.00,,CLR,0.00,0.00,VWS V14.01,2013-03-04 23:15:00,
2013-03-04 18:20:00,35.0,24.1,29.70,West,270,16.0,32.0,64,0.00,,CLR,0.00,0.00,VWS V14.01,2013-03-04 23:20:00,
2013-03-04 18:25:00,34.8,23.5,29.70,WNW,292,16.0,25.0,63,0.00,,CLR,0.00,0.00,VWS V14.01,2013-03-04 23:25:00,
2013-03-04 18:30:00,34.7,23.8,29.71,West,270,16.0,29.0,64,0.00,,CLR,0.00,0.00,VWS V14.01,2013-03-04 23:30:00,
2013-03-04 18:35:00,34.6,23.7,29.71,West,270,16.0,25.0,64,0.00,,CLR,0.00,0.00,VWS V14.01,2013-03-04 23:35:00,
2013-03-04 18:40:00,34.5,23.6,29.71,West,270,15.0,26.0,64,0.00,,CLR,0.00,0.00,VWS V14.01,2013-03-04 23:40:00,
2013-03-04 18:45:00,34.4,24.2,29.71,West,270,13.0,20.0,66,0.00,,CLR,0.00,0.00,VWS V14.01,2013-03-04 23:45:00,
2013-03-04 18:50:00,34.2,23.3,29.71,West,270,13.0,23.0,64,0.00,,CLR,0.00,0.00,VWS V14.01,2013-03-04 23:50:00,
2013-03-04 18:55:00,34.1,23.2,29.71,West,270,14.0,25.0,64,0.00,,CLR,0.00,0.00,VWS V14.01,2013-03-04 23:55:00,
2013-03-04 19:00:00,34.1,22.8,29.72,West,270,16.0,25.0,63,0.00,,CLR,0.00,0.00,VWS V14.01,2013-03-05 00:00:00,
2013-03-04 19:05:00,34.0,23.1,29.72,West,270,16.0,29.0,64,0.00,,CLR,0.00,0.00,VWS V14.01,2013-03-05 00:05:00,
2013-03-04 19:10:00,33.9,23.0,29.72,West,270,16.0,26.0,64,0.00,,CLR,0.00,0.00,VWS V14.01,2013-03-05 00:10:00,
2013-03-04 19:15:00,33.9,23.4,29.72,West,270,15.0,22.0,65,0.00,,CLR,0.00,0.00,VWS V14.01,2013-03-05 00:15:00,
2013-03-04 19:20:00,33.8,23.3,29.72,West,270,15.0,24.0,65,0.00,,CLR,0.00,0.00,VWS V14.01,2013-03-05 00:20:00,
2013-03-04 19:25:00,33.7,23.2,29.72,West,270,14.0,24.0,65,0.00,,CLR,0.00,0.00,VWS V14.01,2013-03-05 00:25:00,
2013-03-04 19:30:00,33.6,23.1,29.72,West,270,15.0,26.0,65,0.00,,CLR,0.00,0.00,VWS V14.01,2013-03-05 00:30:00,
2013-03-04 19:35:00,33.5,23.4,29.72,West,270,15.0,23.0,66,0.00,,CLR,0.00,0.00,VWS V14.01,2013-03-05 00:35:00,
2013-03-04 19:40:00,33.5,23.0,29.73,West,270,17.0,26.0,65,0.00,,CLR,0.00,0.00,VWS V14.01,2013-03-05 00:40:00,
2013-03-04 19:45:00,33.4,22.9,29.73,West,270,16.0,27.0,65,0.00,,CLR,0.00,0.00,VWS V14.01,2013-03-05 00:45:00,
2013-03-04 19:50:00,33.4,23.3,29.73,West,270,16.0,24.0,66,0.00,,CLR,0.00,0.00,VWS V14.01,2013-03-05 00:50:00,
2013-03-04 19:55:00,33.3,23.2,29.73,West,270,18.0,27.0,66,0.00,,CLR,0.00,0.00,VWS V14.01,2013-03-05 00:55:00,
2013-03-04 20:00:00,33.3,22.8,29.73,West,270,17.0,28.0,65,0.00,,CLR,0.00,0.00,VWS V14.01,2013-03-05 01:00:00,
2013-03-04 20:05:00,33.1,23.0,29.73,West,270,16.0,27.0,66,0.00,,CLR,0.00,0.00,VWS V14.01,2013-03-05 01:05:00,
2013-03-04 20:10:00,33.0,22.5,29.73,West,270,17.0,28.0,65,0.00,,CLR,0.00,0.00,VWS V14.01,2013-03-05 01:10:00,
2013-03-04 20:15:00,33.0,22.9,29.73,WNW,292,18.0,27.0,66,0.00,,CLR,0.00,0.00,VWS V14.01,2013-03-05 01:15:00,
2013-03-04 20:20:00,33.0,22.9,29.73,WNW,292,18.0,28.0,66,0.00,,CLR,0.00,0.00,VWS V14.01,2013-03-05 01:20:00,
2013-03-04 20:25:00,33.0,22.9,29.73,West,270,18.0,28.0,66,0.00,,CLR,0.00,0.00,VWS V14.01,2013-03-05 01:25:00,
2013-03-04 20:30:00,32.9,22.8,29.74,WNW,292,18.0,28.0,66,0.00,,CLR,0.00,0.00,VWS V14.01,2013-03-05 01:30:00,
2013-03-04 20:35:00,32.8,23.1,29.74,West,270,16.0,26.0,67,0.00,,CLR,0.00,0.00,VWS V14.01,2013-03-05 01:35:00,
2013-03-04 20:40:00,32.8,23.1,29.74,West,270,15.0,26.0,67,0.00,,CLR,0.00,0.00,VWS V14.01,2013-03-05 01:40:00,
2013-03-04 20:45:00,32.6,22.9,29.74,West,270,13.0,25.0,67,0.00,,CLR,0.00,0.00,VWS V14.01,2013-03-05 01:45:00,
2013-03-04 20:50:00,32.5,22.8,29.74,West,270,15.0,25.0,67,0.00,,CLR,0.00,0.00,VWS V14.01,2013-03-05 01:50:00,
2013-03-04 20:55:00,32.4,22.7,29.75,WNW,292,17.0,27.0,67,0.00,,CLR,0.00,0.00,VWS V14.01,2013-03-05 01:55:00,
2013-03-04 21:08:00,32.4,22.3,29.75,West,270,18.0,30.0,66,0.00,,CLR,0.00,0.00,VWS V14.01,2013-03-05 02:08:00,
2013-03-04 21:13:00,32.2,22.8,29.75,West,275,11.0,21.0,68,0.00,,CLR,0.00,0.00,VWS V14.01,2013-03-05 02:13:00,
2013-03-04 21:18:00,32.2,22.8,29.75,WNW,292,22.0,22.0,68,0.00,,CLR,0.00,0.00,VWS V14.01,2013-03-05 02:18:00,
2013-03-04 21:23:00,32.1,22.8,29.75,WNW,286,14.0,26.0,68,0.00,,CLR,0.00,0.00,VWS V14.01,2013-03-05 02:23:00,
2013-03-04 21:28:00,32.1,22.8,29.75,WNW,292,15.0,20.0,68,0.00,,CLR,0.00,0.00,VWS V14.01,2013-03-05 02:28:00,
2013-03-04 21:33:00,32.1,22.8,29.75,WNW,286,14.0,22.0,68,0.00,,CLR,0.00,0.00,VWS V14.01,2013-03-05 02:33:00,
2013-03-04 21:38:00,32.0,23.0,29.75,West,268,22.0,22.0,69,0.00,,CLR,0.00,0.00,VWS V14.01,2013-03-05 02:38:00,
2013-03-04 21:43:00,32.0,23.0,29.75,West,270,21.0,27.0,69,0.00,,CLR,0.00,0.00,VWS V14.01,2013-03-05 02:43:00,
2013-03-04 21:48:00,31.9,22.9,29.75,WNW,284,21.0,23.0,69,0.00,,CLR,0.00,0.00,VWS V14.01,2013-03-05 02:48:00,
2013-03-04 21:53:00,31.9,22.9,29.75,West,267,14.0,18.0,69,0.00,,CLR,0.00,0.00,VWS V14.01,2013-03-05 02:53:00,
2013-03-04 21:58:00,31.9,23.2,29.75,West,265,15.0,24.0,70,0.00,,CLR,0.00,0.00,VWS V14.01,2013-03-05 02:58:00,
2013-03-04 22:03:00,31.8,22.8,29.76,West,272,20.0,23.0,69,0.00,,CLR,0.00,0.00,VWS V14.01,2013-03-05 03:03:00,
2013-03-04 22:08:00,31.9,23.2,29.76,West,262,16.0,21.0,70,0.00,,CLR,0.00,0.00,VWS V14.01,2013-03-05 03:08:00,
2013-03-04 22:13:00,31.8,23.1,29.76,West,272,12.0,19.0,70,0.00,,CLR,0.00,0.00,VWS V14.01,2013-03-05 03:13:00,
2013-03-04 22:18:00,31.7,23.0,29.76,West,281,20.0,20.0,70,0.00,,CLR,0.00,0.00,VWS V14.01,2013-03-05 03:18:00,
2013-03-04 22:23:00,31.7,23.0,29.76,WNW,303,16.0,22.0,70,0.00,,CLR,0.00,0.00,VWS V14.01,2013-03-05 03:23:00,
2013-03-04 22:28:00,31.7,23.0,29.76,West,279,11.0,19.0,70,0.00,,CLR,0.00,0.00,VWS V14.01,2013-03-05 03:28:00,
2013-03-04 22:33:00,31.7,23.0,29.76,WNW,285,12.0,12.0,70,0.00,,CLR,0.00,0.00,VWS V14.01,2013-03-05 03:33:00,
2013-03-04 22:38:00,31.8,23.1,29.76,WNW,294,13.0,21.0,70,0.00,,CLR,0.00,0.00,VWS V14.01,2013-03-05 03:38:00,
2013-03-04 22:43:00,31.8,23.5,29.76,WNW,300,13.0,24.0,71,0.00,,CLR,0.00,0.00,VWS V14.01,2013-03-05 03:43:00,
2013-03-04 22:48:00,31.9,23.2,29.76,West,273,20.0,21.0,70,0.00,,CLR,0.00,0.00,VWS V14.01,2013-03-05 03:48:00,
2013-03-04 22:53:00,31.9,23.6,29.76,WNW,297,13.0,23.0,71,0.00,,CLR,0.00,0.00,VWS V14.01,2013-03-05 03:53:00,
2013-03-04 22:58:00,31.9,23.6,29.76,West,261,15.0,17.0,71,0.00,,CLR,0.00,0.00,VWS V14.01,2013-03-05 03:58:00,
2013-03-04 23:03:00,31.8,23.1,29.77,West,281,18.0,20.0,70,0.00,,CLR,0.00,0.00,VWS V14.01,2013-03-05 04:03:00,
2013-03-04 23:08:00,31.9,23.6,29.76,NW,306,15.0,25.0,71,0.00,,CLR,0.00,0.00,VWS V14.01,2013-03-05 04:08:00,
2013-03-04 23:13:00,31.9,23.2,29.77,WNW,291,21.0,24.0,70,0.00,,CLR,0.00,0.00,VWS V14.01,2013-03-05 04:13:00,
2013-03-04 23:18:00,31.9,23.6,29.77,WNW,288,14.0,22.0,71,0.00,,CLR,0.00,0.00,VWS V14.01,2013-03-05 04:18:00,
2013-03-04 23:23:00,31.9,23.6,29.77,WNW,286,18.0,20.0,71,0.00,,CLR,0.00,0.00,VWS V14.01,2013-03-05 04:23:00,
2013-03-04 23:28:00,31.9,23.6,29.77,WNW,296,16.0,20.0,71,0.00,,CLR,0.00,0.00,VWS V14.01,2013-03-05 04:28:00,
2013-03-04 23:33:00,31.8,23.5,29.77,WNW,288,9.0,19.0,71,0.00,,SCT095,0.00,0.00,VWS V14.01,2013-03-05 04:33:00,
2013-03-04 23:38:00,31.7,23.4,29.77,West,273,16.0,19.0,71,0.00,,SCT095,0.00,0.00,VWS V14.01,2013-03-05 04:38:00,
2013-03-04 23:43:00,31.7,23.4,29.77,WNW,299,12.0,16.0,71,0.00,,SCT095,0.00,0.00,VWS V14.01,2013-03-05 04:43:00,
2013-03-04 23:48:00,31.6,23.6,29.77,WNW,284,22.0,23.0,72,0.00,,SCT095,0.00,0.00,VWS V14.01,2013-03-05 04:48:00,
2013-03-04 23:53:00,31.6,23.3,29.77,WNW,288,24.0,24.0,71,0.00,,SCT095,0.00,0.00,VWS V14.01,2013-03-05 04:53:00,
2013-03-04 23:58:00,31.6,23.3,29.77,West,267,18.0,20.0,71,0.00,,SCT095,0.00,0.00,VWS V14.01,2013-03-05 04:58:00,